Simultaneous Nadir Overpasses (SNOs) Predictions

Prediction of SNOs between GOES-16 and NOAA-20 Satellite Orbit:

Table of predicted SNOs for the next 14.0 days since TLE Epoch: 2/18/2023
Index Date Time (GOES-16) GOES-16 Lat,Lon NOAA-20 Lat,Lon Distance(km) Time Diff (sec)
1 02/18/2023 18:39:03 0.06, -75.20 -0.73, -78.70 399.22 80
2 02/19/2023 18:22:59 0.06, -75.20 0.28, -74.17 117.46 80
3 02/21/2023 06:44:49 -0.05, -75.21 0.91, -79.44 482.64 80
4 02/22/2023 06:23:25 -0.05, -75.22 -0.10, -74.91 34.63 80
5 02/24/2023 18:26:41 0.05, -75.26 -0.02, -75.71 50.27 80
6 02/25/2023 18:10:38 0.05, -75.28 1.00, -71.18 467.66 80
7 02/27/2023 06:32:26 -0.05, -75.30 0.24, -76.44 130.92 80
8 02/28/2023 06:11:03 -0.05, -75.32 -0.78, -71.91 387.10 80
9 03/01/2023 18:33:01 0.04, -75.35 -0.38, -77.23 214.09 80
10 03/02/2023 18:16:57 0.03, -75.37 0.65, -72.70 304.41 80
